Regional Weather Roundup
Issued by NWS

Home | Current Version | Previous Version | Text Only | Print | Product List | Glossary Off
Versions: 1 2 3 4 5 6 7 8 9 10 11 12 13 14 15 16 17 18 19 20 21 22 23 24 25 26 27 28 29 30 31 32 33 34 35 36 37 38 39 40 41 42 43 44 45 46 47 48 49 50

000
ASUS43 KMKX 281500
RWRWI

WISCONSIN REGIONAL WEATHER ROUNDUP
NATIONAL WEATHER SERVICE MILWAUKEE/SULLIVAN WI
1000 AM CDT SAT MAY 28 2016

NOTE: "FAIR" INDICATES FEW OR NO CLOUDS BELOW 12,000 FEET WITH NO
SIGNIFICANT WEATHER AND/OR OBSTRUCTIONS TO VISIBILITY.

WIZ001-002-006>008-014>016-023>028-281600-
NORTHWEST WISCONSIN

CITY           SKY/WX    TMP DP  RH WIND       PRES   REMARKS
SUPERIOR ARPT  FOG       47  47 100 N6        29.79F VSB 3/4
ASHLAND        MOSUNNY   57  53  86 W3        29.79R
HAYWARD        CLOUDY    62  58  86 CALM      29.78S
SIREN          CLOUDY    56  53  91 E6        29.78R
CUMBERLAND     CLOUDY    59  57  94 CALM      29.78R
RICE LAKE      CLOUDY    63  60  88 CALM      29.79R
CHETEK         CLOUDY    63  63  98 CALM      29.77S
LADYSMITH      CLOUDY    66  64  91 CALM      29.78R
EAU CLAIRE     CLOUDY    68  63  84 N3        29.75S
MENOMONIE      CLOUDY    67  67  99 CALM      29.77S
NEW RICHMOND   CLOUDY    62  62  99 CALM      29.77F
OSCEOLA        CLOUDY    59  59 100 W3        29.80S
$$

WIZ003>005-009-010-017-018-281600-
NORTH CENTRAL WISCONSIN

CITY           SKY/WX    TMP DP  RH WIND       PRES   REMARKS
MANITOWISH WTR NOT AVBL
ARBOR VITAE    PTSUNNY   71  68  89 CALM      29.79S
WOODRUFF       PTSUNNY   71  68  89 CALM      29.79S
RHINELANDER    LGT RAIN  68  65  90 SE3       29.79F FOG
EAGLE RIVER    LGT RAIN  66  65  97 SE5       29.80S
LAND O LAKES   CLOUDY    67  65  95 SE8       29.81F FOG
PHILLIPS       CLOUDY    67  65  93 CALM      29.77S
TOMAHAWK       PTSUNNY   66  64  94 CALM      29.78S FOG
MEDFORD        CLOUDY    67  67 100 E3        29.76S
MERRILL        CLOUDY    69  69  99 S6        29.78S
$$

WIZ029-030-035-036-043>047-281600-
CENTRAL WISCONSIN

CITY           SKY/WX    TMP DP  RH WIND       PRES   REMARKS
WAUSAU         LGT RAIN  69  66  90 SE6       29.75F FOG
MOSINEE        LGT RAIN  66  66 100 S7        29.77F FOG
MARSHFIELD     RAIN      68  65  90 S5        29.74S VSB 1
STEVENS POINT  CLOUDY    67  66  97 SE9       29.78R
WAUPACA        CLOUDY    71  70  97 SE7       29.78S
WAUTOMA        CLOUDY    70  67  90 S9        29.79R
WISC RAPIDS    CLOUDY    69  65  86 S7        29.77R
CAMP DOUGLAS   NOT AVBL
$$

WIZ011>013-019>022-031-037>040-048>050-281600-
NORTHEAST WISCONSIN

CITY           SKY/WX    TMP DP  RH WIND       PRES   REMARKS
ANTIGO         CLOUDY    66  65  98 S7        29.80S FOG
SHAWANO        CLOUDY    72  67  83 S9        29.79S
OCONTO         CLOUDY    70  70 100 SE9       29.80F
STURGEON BAY   NOT AVBL
GREEN BAY      PTSUNNY   74  67  78 S15G24    29.80S
MANITOWOC      CLOUDY    64  61  88 S15       29.85S
APPLETON       CLOUDY    70  64  83 S13       29.79S
CLINTONVILLE   CLOUDY    70  66  88 S12       29.78S
OSHKOSH        CLOUDY    73  65  75 S18G30    29.80R
$$

WIZ032>034-041-042-053>061-281600-
SOUTHWEST WISCONSIN

CITY           SKY/WX    TMP DP  RH WIND       PRES   REMARKS
LA CROSSE      CLOUDY    70  65  84 SW7       29.75R
SPARTA         CLOUDY    68  66  92 S6        29.76R
VIROQUA        CLOUDY    67  67 100 S9        29.78R
BOSCOBEL       PTSUNNY   72  65  78 S9        29.80R
PRAIRIE DU CHI CLOUDY    69  64  83 S6        29.79R
PLATTEVILLE    CLOUDY    68  65  90 S16       29.83R
$$

WIZ056-057-062-063-064-067-068-281600-
SOUTH CENTRAL WISCONSIN

CITY           SKY/WX    TMP DP  RH WIND       PRES   REMARKS
REEDSBURG      CLOUDY    68  66  94 S15       29.79R
BARABOO/DELLS  CLOUDY    68  63  82 S17G23    29.79R
LONE ROCK      CLOUDY    72  63  73 SW16G23   29.80R
MINERAL POINT  CLOUDY    70  64  83 S16       29.82S
MADISON        CLOUDY    72  64  76 SW9G22    29.82R
MIDDLETON      CLOUDY    73  64  73 SW22G29   29.81R
WATERTOWN      CLOUDY    72  67  85 S17G28    29.83R
MONROE         CLOUDY    70  64  83 S18G24    29.84R
JANESVILLE     CLOUDY    73  66  78 S18G26    29.85R
$$

WIZ051-052-058>065-066-070>072-281600-
SOUTHEAST WISCONSIN

CITY           SKY/WX    TMP DP  RH WIND       PRES   REMARKS
MILWAUKEE      CLOUDY    75  65  70 SW21G29   29.86R
WAUKESHA       CLOUDY    70  64  83 S15       29.86S
MILWAUKEE/TIMM CLOUDY    73  63  68 SW12G22   29.86R
RACINE         CLOUDY    73  64  73 S9        29.89R
BURLINGTON     CLOUDY    71  65  80 S16G24    29.87R
KENOSHA        CLOUDY    73  65  75 S16       29.88R
FOND DU LAC    CLOUDY    73  66  78 S22G32    29.81R
SHEBOYGAN      CLOUDY    71  65  81 S14       29.84S
WEST BEND      CLOUDY    72  63  73 SW17      29.84S
JUNEAU         CLOUDY    71  65  83 S16G29    29.84R
$$

LSZ147-162-281600-
LAKE SUPERIOR

STATION/POSITION TIME  TEMP    WIND        PRES    WAVE
                       AIR SEA DIR/SP/G            HT/PER
                 (UTC) (F)     (DEG/KT/KT) (MB)    (FT/S)
W MID LAKE BUOY  1350   41 38   50/  8/ 10 1009.4R   2/ 4
DEVILS ISLAND    1400   43     100/  5/  6 1009.4R
SAXON HARBOR     1440   51      40/  2/  3 1008.5R
$$

LMZ867-665-643>646-281600-
LAKE MICHIGAN

STATION/POSITION TIME  TEMP    WIND        PRES    WAVE
                       AIR SEA DIR/SP/G            HT/PER
                 (UTC) (F)     (DEG/KT/KT) (MB)    (FT/S)
CHAMBERS ISLAND  1400   63     130/  6/ 12 1010.2S
N MID LAKE BUOY  1350   50 46  170/  6/  8 1011.4R   2/ 4
NORTHPORT PIER   1400   55     140/ 10/ 15 1011.2R
SISTER BAY       1405   63     180/ 17/ 20   N/A
ALGOMA LAKESHORE 1417          200/  9/ 10   N/A
KEWAUNEE LAKESHO 1400   52     180/  8/  9 1010.2R
SHEBOYGAN LAKESH 1400   54     170/ 17/ 18 1010.9R
PORT WASHINGTON  1440   61     200/  8/ 12 1011.5S
S MID LAKE BUOY  1350   55 50  160/ 14/ 16 1012.2R   2/ 3
KENOSHA   LAKESH 1400   57     170/ 15/ 16 1011.5R
$$

TC  - TEMPERATURE IN CELSIUS
VSB - VISIBILITY IN STATUTE MILES
WCI - WIND CHILL INDEX
HX  - HEAT INDEX





USA.gov is the U.S. government's official web portal to all federal, state and local government web resources and services.